Location: Arrakis Observatory
(44.1122°N, 95.7153°W)
Time: 02:06:47
(UTC-06:00)

Daily predictions for brighter satellites

Satellite Brightness Start Highest point End
(mag) Time Altitude Azimuth Time Altitude Azimuth Time Altitude Azimuth
Cosmos 2237 Rocket 4.4 04:22:48 16° SE 04:22:48 16° SE 04:23:53 10° SE
SL-16 R/B 3.7 04:22:48 32° ENE 04:22:48 32° ENE 04:27:09 10° ESE
Cosmos 2297 Rocket 3.4 04:33:23 39° ENE 04:33:23 39° ENE 04:37:26 10° NE
USA 234 4.2 04:36:28 10° E 04:42:19 36° NNE 04:42:59 35° N
Cosmos 2227 Rocket 3.3 04:46:53 36° NNE 04:46:53 36° NNE 04:50:12 10° NNE
Meteor 2-17 Rocket 4.5 05:01:22 68° NNE 05:01:22 68° NNE 05:06:39 10° N
Tsikada Rocket 3.9 05:04:33 42° N 05:06:57 86° E 05:13:17 10° S
ATLAS CENTAUR R/B 4.5 05:14:04 13° NNE 05:14:04 13° NNE 05:15:50 10° NE
Cosmos 2082 4.0 05:14:49 54° N 05:14:49 54° N 05:19:20 10° NNE
Cosmos 2333 Rocket 4.5 05:21:28 11° SSW 05:21:28 11° SSW 05:21:36 10° SSW
SeaSat 1 3.9 05:19:59 10° NNE 05:22:19 26° N 05:22:19 26° N
ADEOS II 4.4 05:21:19 10° N 05:21:31 11° N 05:21:31 11° N
SKYMED 2 3.7 05:23:33 10° SSE 05:27:52 71° ENE 05:28:08 68° NE
Cosmos 968 Rocket 4.0 05:22:50 10° S 05:27:59 58° ESE 05:33:10 10° NNE
Cosmos 1864 Rocket 4.3 05:27:13 10° SSW 05:33:16 62° W 05:39:24 10° N
Cosmos 1725 Rocket 3.9 05:27:08 10° SSW 05:33:18 62° W 05:39:34 10° N
NOAA 6 4.0 05:28:37 10° NNE 05:33:51 88° ESE 05:39:03 10° SSW
USA 229 DEB 3.8 05:38:23 44° WNW 05:40:18 57° WSW 05:47:21 10° SSE
USA 229 3.8 05:38:26 44° WNW 05:40:24 58° WSW 05:47:27 10° SSE
Cosmos 1328 3.8 05:40:34 71° NNE 05:40:53 78° E 05:44:53 10° SSE
Cosmos 304 Rocket 3.6 05:43:29 64° WNW 05:44:02 72° WSW 05:48:47 10° SSE
ISS -2.3 05:48:48 41° SSE 05:48:48 41° SSE 05:51:06 10° SE
Cosmos 2221 3.9 05:45:40 10° SSE 05:49:42 39° E 05:53:45 10° NNE
CSL-04 Rocket 4.4 05:47:57 10° NNE 05:53:10 54° E 05:58:19 10° S
NOSS 3-1 (A) 4.2 05:48:21 19° NNW 05:54:03 71° NE 06:02:22 10° SE
Genesis I 3.8 05:53:49 35° N 05:55:07 53° NE 05:58:58 10° SE
Cosmos 2058 3.2 05:52:01 12° N 05:55:50 65° E 05:59:57 10° SSE
Cosmos 2237 Rocket 4.1 06:04:42 13° SW 06:04:42 13° SW 06:05:41 10° SW
ATLAS 2AS CENTAUR R/B 4.2 05:55:21 11° NNW 06:02:23 35° NE 06:09:23 10° E
SL-8 R/B 3.8 06:03:57 38° NW 06:05:42 70° NNE 06:10:29 10° ESE
SL-16 R/B 2.6 06:04:45 34° WNW 06:06:16 41° WSW 06:11:32 10° S
TELKOM 3 4.2 06:09:30 36° S 06:09:57 40° SSE 06:12:06 10° ENE
Cosmos 1703 4.0 06:06:16 10° N 06:10:07 53° ENE 06:13:58 10° SSE
Cosmos 1842 Rocket 3.9 06:10:59 10° SSW 06:15:04 40° WNW 06:19:13 10° N
COSMO-SKYMED 1 3.1 06:12:00 10° SSW 06:15:58 35° W 06:16:42 33° WNW
IDEFIX/ARIANE 42P 3.8 06:10:57 10° NNE 06:16:00 45° E 06:21:02 10° S
Cosmos 2297 Rocket 3.0 06:15:15 28° WNW 06:16:16 30° NW 06:21:13 10° N
Helios 1B rocket 4.2 06:15:06 10° SE 06:18:45 32° ENE 06:22:26 10° N
ERBS 2.3 06:18:03 44° WNW 06:18:55 65° SW 06:22:18 10° SE
Cosmos 2151 3.1 06:16:07 19° NNW 06:18:58 50° W 06:23:03 10° S
Cosmos 1356 Rocket 3.8 06:16:13 10° N 06:20:17 63° ENE 06:24:24 10° SSE
Meteor 1-4 Rocket 3.4 06:22:58 31° NW 06:22:58 31° NW 06:25:53 10° N
Cosmos 2233 Rocket 4.3 06:16:48 10° SW 06:22:40 42° WNW 06:28:38 10° N
Cosmos 1805 Rocket 3.7 06:18:39 10° N 06:23:07 78° E 06:27:30 10° SSE
Cosmos 1340 Rocket 2.7 06:20:03 15° NNW 06:23:16 61° W 06:27:09 10° S
USA 234 3.3 06:18:15 10° ESE 06:24:48 79° NE 06:30:20 16° NW
Meteor 1-11 4.3 06:19:11 10° NNW 06:24:55 59° W 06:30:35 10° S
Cosmos 1538 Rocket 4.3 06:21:59 17° NW 06:25:53 47° WSW 06:30:58 10° S
Cosmos 1271 Rocket 2.7 06:23:28 10° SSW 06:27:13 54° WNW 06:30:57 10° N
Cosmos 2227 Rocket 3.4 06:28:45 20° NW 06:29:14 20° NW 06:33:21 10° N
Meteor 1-28 Rocket 3.8 06:25:51 10° SSW 06:29:18 34° W 06:30:52 24° NW
BREEZE-M DEB (TANK) 3.1 06:31:03 23° NW 06:32:14 32° N 06:34:16 10° ENE
Meteor 1-16 Rocket 4.3 06:27:06 10° SSW 06:32:20 49° WNW 06:37:31 10° N
SL-14 R/B 4.0 06:31:11 19° NW 06:33:23 33° W 06:37:01 10° SSW
Cosmos 923 Rocket 4.0 06:28:12 10° NNW 06:33:28 86° WSW 06:38:42 10° SSE
NOSS 3-1 (C) 4.1 06:28:35 14° NW 06:35:11 61° WSW 06:43:20 10° SSE
Ariane Rocket 3.1 06:31:21 10° N 06:36:19 53° WNW 06:41:15 10° SW
SJ-12 4.0 06:35:36 10° NNE 06:39:43 81° ESE 06:43:47 10° S
Cosmos 292 Rocket 3.7 06:34:56 10° NNW 06:39:45 85° WSW 06:44:32 10° SSE
Cosmos 1626 2.0 06:37:38 10° N 06:41:25 83° W 06:45:08 10° S
Cosmos 2034 Rocket 4.0 06:35:57 10° S 06:42:09 85° W 06:48:26 10° N
Cosmos 1680 Rocket 3.6 06:37:01 10° NNW 06:42:21 88° ENE 06:47:41 10° SSE
IRS-1A Rocket 4.4 06:38:11 10° NNE 06:44:08 85° WNW 06:49:57 10° SSW
Sich 1 3.0 06:43:50 10° N 06:48:14 87° W 06:52:32 10° S
Nadezhda 4 Rocket 4.1 06:42:10 10° N 06:48:33 85° E 06:54:51 10° S
Cosmos 1943 3.4 06:43:36 10° NNW 06:49:20 80° ENE 06:55:02 10° SSE
SMAP 3.2 06:45:10 10° NNE 06:49:51 79° ESE 06:54:30 10° S
Cosmos 1633 Rocket 3.1 06:46:08 10° N 06:50:32 87° E 06:54:51 10° S
CZ-2C R/B 2.2 06:49:24 10° NNE 06:54:01 82° WNW 06:58:35 10° SSW
Cosmos 389 Rocket 2.9 06:50:39 10° S 06:54:17 71° E 06:57:58 10° NNE
Cosmos 1328 Rocket 4.3 06:51:33 10° S 06:55:47 56° E 07:00:05 10° NNE
CZ-4 R/B 1.3 06:51:55 10° N 06:55:57 67° WNW 07:00:00 10° SSW
Meteor 2-1 Rocket 4.4 06:51:23 10° SSW 06:56:48 49° WNW 07:02:22 10° N
Tiangong 2 3.9 06:55:33 10° SSW 06:57:43 17° SSE 06:59:53 10° ESE
PAYLOAD A 4.2 06:57:51 10° N 07:02:43 48° WNW 07:07:23 10° SW
CSL-04 Debris 4.5 06:59:07 10° N 07:04:19 45° WNW 07:09:29 10° SW
Cosmos 1092 Rocket 4.2 06:58:59 10° N 07:05:19 83° E 07:11:34 10° S
CORIOLIS 4.3 06:59:57 10° NNE 07:05:24 87° ESE 07:10:50 10° SSW
YAOGAN 1 2.5 07:04:23 10° N 07:08:43 74° WNW 07:13:02 10° SSW
Coronas F rocket 1.3 07:07:16 10° NNW 07:09:35 43° W 07:11:53 10° S
Cosmos 1603 4.4 07:05:10 10° NW 07:10:10 34° WSW 07:15:10 10° SSW
Cosmos 1464 Rocket 4.5 07:07:25 10° SW 07:13:15 38° WNW 07:19:05 10° N
Cosmos 1151 Rocket 4.4 07:09:45 10° SSE 07:13:49 44° E 07:17:53 10° NNE
Cosmos 1908 3.2 07:10:07 10° SSW 07:13:53 61° W 07:17:42 10° N
COSMOS 2441 4.4 07:09:34 10° NNE 07:14:24 89° ESE 07:19:12 10° SSW
Cosmos 2112 Rocket 4.2 07:11:44 10° NNW 07:16:56 55° WSW 07:22:08 10° S
Cosmos 2263 Rocket 2.5 07:11:38 10° SSW 07:17:18 77° ESE 07:23:01 10° NNE
Cosmos 1666 Rocket 4.2 07:17:29 10° NNW 07:21:33 36° W 07:25:38 10° SSW
CZ-4 R/B 4.5 07:21:19 10° N 07:25:23 59° WNW 07:29:26 10° SSW
MSX 3.8 07:21:18 10° N 07:27:03 72° WNW 07:32:47 10° SSW
